Wind_Speed
21 15 21 19 14 16 17 19 21 23 24 25 24 21 18 16 17 18 16 17 17 16 14 15 19 21 18 19 18 20 20 19 12 12 15 17 16 15 15 12 9 10 11 16 20 25 28 33 43 55 56 59 63 72
16 15 19 13 12 13 15 17 19 21 22 24 23 22 18 16 16 13 14 16 17 18 16 16 19 20 22 22 21 19 18 19 18 15 19 20 20 20 16 12 11 6 11 16 22 23 23 24 31 38 46 58 66 73
10 14 18 9 9 10 13 16 18 20 22 23 22 21 19 15 13 14 13 14 16 16 13 11 13 19 21 21 23 22 21 18 17 19 23 23 23 20 18 16 13 14 13 14 15 16 17 13 19 23 29 38 41 59
6 13 15 6 7 9 11 15 17 20 21 22 23 20 18 16 15 16 14 15 17 17 18 17 15 14 16 20 22 23 22 23 23 23 23 25 25 24 20 16 14 14 10 9 9 8 8 9 13 18 12 17 28 37
6 13 11 5 7 7 10 13 16 19 19 21 22 19 18 15 14 15 14 15 16 17 18 18 14 15 14 17 19 21 22 23 22 19 24 24 25 25 25 27 22 18 17 13 12 12 7 4 9 9 9 9 18 37
7 12 9 5 6 6 8 11 15 17 18 18 21 19 18 16 14 14 14 15 16 17 15 15 15 15 16 16 17 20 20 20 21 22 23 22 23 26 27 27 27 29 28 20 20 16 13 6 4 2 5 7 19 34
5 11 7 5 5 4 6 9 12 16 17 16 20 19 19 18 17 15 15 15 14 14 14 14 14 14 17 16 15 15 17 18 21 25 28 29 25 24 24 25 28 27 25 30 24 18 16 11 4 6 4 11 17 25
5 10 6 6 4 2 4 8 11 14 16 16 17 20 19 18 16 15 16 17 16 16 18 15 16 14 17 16 15 15 15 14 15 21 27 29 27 25 23 24 26 27 28 25 25 25 19 20 6 7 8 12 17 29
9 9 7 6 3 1 3 7 11 13 15 17 18 18 19 19 17 15 15 17 18 19 19 20 19 17 20 19 21 21 21 18 18 17 23 26 24 21 22 24 25 26 26 28 29 28 29 21 16 4 7 14 16 21
9 9 8 6 3 3 3 7 11 14 14 14 18 20 20 20 19 16 15 16 16 18 20 21 22 22 23 24 25 27 27 23 20 19 23 26 25 23 26 25 23 23 25 22 21 21 23 24 19 10 1 7 16 22
10 9 9 6 4 4 4 6 10 14 15 13 17 19 19 21 19 17 17 18 19 21 20 20 25 26 28 29 28 28 20 19 18 22 21 24 21 20 28 26 24 23 22 21 20 18 19 21 20 19 9 2 5 13
11 9 10 7 6 5 4 6 8 12 15 13 17 21 21 21 20 22 22 26 29 25 26 28 29 30 33 36 38 22 29 20 15 18 16 15 16 20 27 31 31 23 21 21 19 19 18 16 18 18 17 13 5 5
12 10 10 8 7 7 4 4 5 10 13 11 15 20 20 21 19 22 30 23 19 27 23 38 25 29 40 42 36 22 27 10 17 15 16 20 21 23 24 29 30 30 23 22 21 20 20 18 14 15 16 14 12 11
11 11 11 9 8 8 6 5 5 8 11 11 14 16 19 19 24 19 24 22 32 30 31 33 35 38 35 34 35 36 8 14 11 11 18 24 27 25 22 26 26 26 24 22 20 21 21 21 18 12 13 12 10 9
10 11 11 10 9 8 7 5 5 8 9 13 12 14 17 20 22 18 20 29 31 33 30 33 36 34 31 28 26 23 21 21 20 22 20 25 28 25 24 23 20 21 23 21 22 19 19 21 21 17 11 14 15 11
11 12 11 10 9 8 7 5 6 9 9 10 12 13 17 14 18 22 26 28 30 30 28 35 33 31 27 28 26 25 23 21 21 25 28 26 24 21 20 19 19 19 20 22 20 18 17 18 18 19 18 13 15 16
11 11 10 9 9 8 7 6 7 8 9 10 12 14 20 23 26 20 34 33 34 31 32 35 32 27 25 28 28 27 25 24 24 26 26 23 20 19 21 22 20 20 20 19 20 20 17 15 17 16 17 18 17 15
11 10 10 9 9 8 6 7 7 8 10 11 12 14 18 21 20 28 29 31 32 28 34 32 29 28 29 30 31 27 27 27 27 23 25 21 18 21 21 21 21 21 22 24 22 21 20 21 19 18 17 16 19 18
10 10 8 8 8 6 6 7 8 9 11 13 14 16 19 19 18 25 21 34 33 32 35 30 30 30 31 34 31 28 26 27 26 25 25 25 25 26 25 23 25 25 26 25 26 26 23 22 23 23 21 20 19 18
11 8 7 7 7 7 7 7 8 9 11 13 14 13 19 30 14 27 25 29 40 37 36 32 30 30 31 28 24 22 24 25 25 23 27 28 28 30 31 32 30 30 28 21 19 25 24 23 24 24 23 26 25 21
10 8 7 7 7 7 7 8 9 11 12 13 12 15 14 20 25 28 27 28 37 39 36 34 33 34 26 24 25 25 26 26 26 26 27 26 29 30 31 31 29 31 29 15 16 21 21 21 18 22 21 25 27 27
9 8 8 7 8 8 8 8 9 11 11 10 11 14 23 23 26 26 25 29 34 36 35 35 33 32 26 25 25 26 26 26 28 29 29 27 35 33 33 25 32 26 10 10 6 3 11 26 29 22 20 21 23 24
8 8 8 8 7 7 8 9 9 9 9 9 11 14 19 22 24 24 25 33 35 33 33 34 34 31 25 27 26 25 28 29 29 31 31 31 34 36 35 27 22 15 14 21 25 28 29 25 17 23 24 18 19 21
7 6 6 6 5 5 7 8 8 7 7 9 9 18 19 22 25 25 27 35 36 34 31 36 33 30 25 29 29 28 29 30 30 33 34 35 37 37 24 23 29 24 18 16 13 19 23 19 22 17 17 20 17 18
5 4 3 3 3 5 7 7 6 7 8 12 16 18 20 23 24 22 26 30 34 31 29 32 33 32 26 29 29 30 31 31 33 34 36 37 40 32 24 19 17 20 17 13 10 8 14 1 17 16 15 20 16 17
3 1 1 4 5 6 7 7 7 12 4 14 15 18 8 26 26 26 31 33 36 29 31 31 31 31 26 27 28 27 29 29 30 32 35 37 38 32 26 22 18 15 10 4 4 2 8 18 19 20 18 13 11 11
2 2 4 5 5 5 8 10 9 4 13 15 23 11 25 22 21 25 24 27 38 36 37 31 31 31 28 25 26 26 27 28 29 30 32 35 38 38 31 27 22 18 14 9 9 6 7 7 4 5 4 3 6 7
2 4 4 4 5 6 7 9 11 12 19 16 18 20 28 9 33 34 30 27 30 36 33 28 26 28 28 26 25 25 23 23 25 28 30 33 36 37 36 31 27 25 22 18 15 10 8 9 8 6 4 4 3 3
7 7 6 5 7 9 10 10 14 12 8 13 16 24 28 31 33 32 29 28 30 32 31 26 27 28 28 27 24 25 25 25 24 25 26 28 31 33 33 31 31 30 29 27 24 21 19 17 16 15 14 13 11 10
11 10 8 6 8 12 16 17 13 18 15 26 28 25 29 33 36 32 28 26 29 29 29 25 25 25 26 26 23 22 23 23 22 21 22 24 26 27 29 29 29 28 26 24 23 22 21 20 18 17 15 14 13 11
11 10 7 8 14 15 19 18 11 14 19 20 23 26 25 30 31 24 21 24 27 32 28 21 23 24 24 25 24 20 21 21 21 20 20 20 20 21 22 23 25 26 26 25 24 23 22 21 19 18 17 16 14 13
9 9 9 11 13 15 18 13 10 21 24 25 22 24 27 29 18 12 19 19 22 27 29 21 23 22 23 23 22 20 18 19 18 19 19 19 19 20 20 19 20 20 21 23 24 24 24 24 23 22 21 20 18 17
9 11 14 14 22 21 19 15 19 20 22 21 20 23 16 18 15 12 22 24 25 27 24 21 21 22 22 21 20 19 16 17 17 17 17 16 17 19 20 20 20 20 19 19 19 20 21 22 22 23 24 24 24 24
Wind_Direction
299 15 336 337 342 350 353 355 359 360 1 360 359 356 356 360 355 355 12 15 13 8 1 349 346 357 357 358 357 359 5 2 344 1 21 14 355 344 335 324 297 283 260 263 254 249 249 242 239 245 248 242 237 233
297 12 335 336 346 352 350 355 360 5 7 6 0 0 356 352 360 20 19 17 13 18 15 7 5 2 8 9 9 2 8 12 13 11 23 16 2 343 327 325 326 271 261 250 242 245 247 237 240 242 247 246 243 235
310 356 332 341 345 345 350 354 359 3 6 4 1 358 5 6 12 7 4 6 8 10 357 347 8 17 15 21 20 14 16 13 17 15 23 17 7 359 351 332 307 300 287 287 277 275 264 255 240 235 243 245 240 234
327 348 332 334 334 334 349 354 359 2 6 4 1 359 358 358 352 353 355 354 356 359 357 7 10 13 12 17 17 22 19 22 23 23 24 21 25 20 9 8 2 347 299 311 316 326 301 268 272 272 253 254 239 213
23 329 328 321 318 331 346 356 1 3 8 4 1 2 359 355 356 357 353 352 352 359 2 1 2 12 9 10 11 12 14 18 14 19 25 27 24 20 15 15 16 13 15 351 326 334 344 314 302 273 312 236 208 178
37 317 319 306 304 331 351 356 1 3 8 6 5 4 4 1 357 354 354 350 352 352 358 7 8 5 6 7 5 2 5 11 10 9 15 14 18 14 13 13 15 5 9 17 15 350 341 360 337 308 319 278 185 197
13 308 304 287 294 331 347 351 1 4 5 360 6 4 4 5 1 357 348 345 345 349 353 357 358 16 340 4 356 358 3 4 4 5 5 7 11 9 5 1 360 6 10 0 10 16 7 335 241 215 226 214 209 196
306 300 291 265 283 324 341 345 354 2 3 359 358 1 360 2 5 1 356 354 350 351 351 347 341 340 337 340 344 343 343 346 357 354 356 352 356 359 358 354 356 352 353 3 359 1 22 20 360 196 190 228 224 223
281 295 273 254 261 266 322 341 351 356 357 1 2 356 353 354 350 352 353 356 359 359 356 351 344 335 332 329 324 328 324 325 327 336 341 340 343 349 354 352 351 349 345 347 353 354 351 12 24 349 201 205 223 221
277 288 251 240 235 234 287 334 349 353 353 352 359 356 355 349 350 348 345 351 352 354 345 347 342 343 337 332 332 331 318 296 308 319 324 333 331 332 346 346 342 347 339 339 340 341 340 345 2 25 311 225 206 223
275 283 240 219 221 226 274 332 348 351 357 354 357 354 351 352 350 348 345 343 341 335 337 335 353 349 337 323 321 329 336 321 299 308 321 323 330 316 336 338 339 337 334 330 330 332 331 336 342 351 11 123 201 192
268 269 229 212 218 225 275 331 348 351 358 1 3 3 359 358 2 1 354 350 346 342 347 337 332 341 337 333 330 319 334 310 306 321 321 318 328 322 326 326 326 328 326 322 324 322 322 326 331 333 335 356 8 176
273 242 218 219 219 220 253 314 343 351 353 355 360 3 4 7 4 359 354 347 329 306 297 311 333 310 329 329 320 305 306 300 329 333 321 329 320 324 319 318 318 319 329 323 313 310 310 312 318 321 323 328 334 321
271 224 216 219 220 223 249 284 300 338 350 354 357 1 6 7 16 359 327 304 337 336 331 327 322 327 331 339 318 336 272 325 318 298 319 314 329 325 319 315 313 312 322 326 321 308 298 298 299 303 302 297 293 304
238 218 218 220 223 229 254 282 303 310 325 351 352 357 356 8 3 346 344 331 331 332 335 330 331 336 343 344 339 339 324 328 316 318 326 326 326 319 309 307 308 312 317 322 325 322 309 299 296 290 282 285 283 268
223 221 219 221 226 236 257 280 302 312 312 332 340 342 354 354 335 344 344 338 340 338 326 333 336 343 348 350 350 346 343 337 327 323 323 324 323 322 319 316 313 312 312 310 309 315 316 310 299 300 282 259 264 269
218 222 222 226 225 237 257 278 300 311 322 319 324 328 349 353 333 300 355 344 344 343 345 342 344 347 348 353 347 339 336 328 325 321 328 322 317 315 316 316 316 318 316 313 309 300 295 300 299 291 297 291 267 253
214 217 225 227 223 239 262 283 295 307 324 321 317 316 339 343 346 345 339 343 345 348 347 347 344 346 345 343 342 336 333 331 330 331 329 326 315 318 315 316 317 318 317 315 311 304 298 288 283 284 280 283 283 258
211 216 223 221 224 246 273 283 291 305 320 322 314 323 332 330 349 336 342 348 351 352 351 349 349 343 340 338 341 340 339 339 336 335 331 325 322 320 315 313 312 311 308 308 308 302 296 288 281 274 271 273 272 274
211 213 219 221 233 259 274 276 285 300 317 321 318 323 326 324 306 346 342 347 354 354 352 349 348 344 339 339 342 341 337 336 336 327 322 325 321 321 317 319 314 310 309 311 244 281 293 286 276 270 269 261 261 264
201 205 213 226 246 265 272 278 292 307 318 327 329 330 326 349 349 342 345 344 352 354 350 348 347 347 348 343 341 340 341 339 337 335 331 327 325 318 315 311 317 315 315 292 245 283 291 275 284 283 267 265 259 253
198 203 218 237 254 263 271 283 299 321 307 311 280 329 337 340 339 343 349 350 351 352 350 349 347 349 350 347 344 338 342 345 342 340 337 328 323 321 319 302 296 309 280 247 322 237 228 273 287 282 272 260 256 255
210 223 235 246 251 264 277 290 294 296 296 295 304 320 331 340 344 348 352 347 348 346 351 351 350 352 350 349 350 346 344 346 346 345 343 338 330 327 321 319 321 315 266 264 260 243 249 258 249 265 278 269 253 249
216 222 225 232 250 273 290 296 297 299 290 255 323 320 332 338 338 343 345 345 344 346 351 350 353 355 351 350 349 352 349 349 350 350 349 345 340 336 334 305 305 313 297 278 274 217 238 239 265 268 283 283 261 245
180 187 200 224 269 282 301 323 304 301 318 322 305 313 329 338 337 340 345 347 336 337 351 350 349 355 354 352 350 348 350 353 352 357 355 355 355 353 349 341 321 314 315 299 273 224 199 297 178 226 288 289 266 246
144 157 284 301 302 306 318 318 316 284 250 312 314 300 312 325 331 339 348 345 335 329 359 353 353 352 351 351 351 351 351 356 357 0 3 6 8 8 10 8 6 2 360 100 231 196 236 234 244 274 278 261 244 230
93 15 356 353 345 329 315 285 257 266 290 293 284 300 331 314 328 334 342 338 349 342 349 349 353 354 351 349 352 356 355 358 1 5 9 14 18 22 25 27 30 33 34 93 147 103 355 325 242 233 229 216 213 208
312 338 334 349 347 333 324 319 334 321 305 272 6 321 311 310 317 319 320 329 338 342 343 347 349 352 352 348 352 359 3 360 3 9 14 18 24 29 33 36 41 45 52 59 67 74 71 74 88 97 91 100 126 153
283 297 284 298 322 324 306 284 266 260 358 13 324 335 331 319 313 309 309 324 334 340 346 345 349 354 355 354 354 358 1 5 7 10 15 20 27 32 35 39 44 49 53 56 60 62 64 67 69 71 75 77 78 78
273 280 269 290 317 303 298 306 271 348 346 333 324 335 329 325 324 312 308 328 334 343 342 343 351 352 354 355 353 358 2 4 6 9 14 20 25 31 35 40 44 47 49 51 53 55 58 60 63 65 68 70 73 74
266 272 266 292 302 322 321 285 327 335 308 302 311 328 339 341 345 331 318 333 341 341 348 344 347 352 356 354 356 359 3 7 9 11 14 18 21 26 31 35 39 44 48 50 51 52 53 53 54 55 54 54 55 56
265 262 265 276 295 285 275 291 335 317 308 305 316 320 329 335 347 341 342 349 343 345 349 347 349 353 356 356 358 4 7 10 14 17 19 23 26 29 33 32 36 41 46 49 50 52 53 54 54 54 54 53 53 52
251 251 271 297 266 281 310 326 330 339 324 330 335 338 352 359 348 343 344 344 344 353 348 348 351 356 357 1 3 7 13 15 17 18 19 26 31 34 35 36 38 40 43 46 49 52 53 54 55 55 56 56 57 57
Height
5789 5786 5786 5782 5778 5775 5772 5768 5763 5759 5754 5749 5745 5740 5736 5732 5729 5726 5722 5719 5716 5712 5709 5707 5703 5698 5694 5689 5684 5680 5675 5671 5667 5664 5659 5654 5651 5648 5645 5642 5639 5638 5637 5635 5634 5633 5631 5631 5634 5635 5639 5644 5653 5659
5784 5783 5782 5779 5776 5773 5771 5767 5762 5758 5753 5749 5745 5741 5736 5732 5729 5726 5723 5720 5717 5714 5711 5707 5702 5699 5693 5688 5683 5680 5676 5671 5667 5663 5658 5652 5649 5646 5643 5640 5636 5635 5633 5630 5628 5627 5626 5626 5626 5626 5624 5625 5631 5635
5781 5781 5780 5776 5774 5771 5769 5766 5761 5757 5753 5749 5745 5741 5737 5733 5730 5727 5724 5721 5717 5714 5712 5709 5705 5698 5694 5690 5685 5681 5676 5672 5668 5663 5658 5654 5649 5646 5642 5638 5634 5631 5628 5626 5623 5621 5618 5616 5614 5612 5609 5608 5610 5612
5778 5778 5777 5774 5772 5770 5767 5764 5761 5757 5753 5749 5746 5742 5738 5734 5730 5727 5724 5720 5717 5713 5710 5706 5701 5699 5695 5690 5686 5682 5678 5672 5666 5663 5660 5655 5650 5646 5642 5638 5633 5629 5626 5623 5619 5615 5611 5608 5607 5604 5601 5598 5595 5596
5775 5776 5774 5771 5770 5768 5766 5763 5760 5757 5752 5749 5745 5741 5737 5734 5730 5726 5723 5720 5716 5714 5709 5705 5702 5699 5696 5691 5687 5683 5679 5673 5670 5665 5661 5657 5652 5647 5643 5638 5632 5628 5623 5620 5616 5612 5608 5604 5601 5598 5596 5595 5599 5603
5772 5772 5770 5769 5768 5766 5764 5762 5759 5756 5752 5749 5745 5741 5737 5733 5729 5726 5723 5719 5716 5712 5709 5705 5701 5698 5695 5691 5687 5684 5681 5676 5673 5668 5663 5659 5653 5647 5642 5637 5634 5628 5622 5617 5613 5608 5604 5601 5598 5596 5597 5596 5599 5604
5769 5769 5767 5766 5765 5764 5762 5761 5758 5755 5751 5748 5745 5740 5736 5732 5729 5726 5723 5719 5715 5712 5708 5704 5701 5695 5694 5689 5687 5684 5680 5676 5673 5668 5661 5657 5651 5648 5642 5638 5632 5629 5625 5618 5612 5608 5604 5600 5598 5596 5596 5600 5602 5607
5767 5766 5764 5764 5763 5762 5761 5760 5757 5754 5751 5747 5744 5740 5736 5732 5729 5725 5722 5719 5715 5711 5708 5704 5700 5697 5693 5689 5686 5682 5678 5674 5671 5667 5662 5657 5653 5648 5643 5639 5633 5627 5623 5620 5614 5608 5604 5600 5597 5596 5598 5600 5603 5605
5764 5763 5761 5761 5760 5760 5759 5758 5756 5753 5750 5747 5743 5739 5736 5732 5728 5725 5721 5717 5714 5712 5707 5703 5699 5696 5692 5687 5683 5680 5676 5672 5669 5665 5661 5657 5652 5649 5645 5639 5633 5629 5623 5617 5611 5607 5605 5601 5598 5595 5597 5598 5602 5604
5761 5759 5758 5758 5758 5758 5758 5757 5755 5752 5749 5746 5742 5738 5734 5731 5727 5723 5720 5716 5712 5709 5704 5700 5697 5694 5690 5684 5679 5675 5670 5666 5664 5662 5658 5654 5649 5643 5641 5638 5632 5629 5624 5620 5616 5610 5604 5603 5599 5593 5592 5595 5599 5601
5757 5756 5756 5755 5755 5756 5756 5755 5754 5751 5748 5745 5742 5738 5734 5729 5726 5722 5719 5715 5712 5708 5704 5699 5695 5690 5686 5681 5676 5671 5664 5660 5659 5658 5655 5650 5647 5642 5635 5633 5628 5624 5622 5619 5616 5611 5606 5602 5600 5597 5593 5592 5594 5596
5754 5752 5753 5753 5753 5753 5754 5754 5752 5750 5747 5744 5741 5737 5733 5729 5725 5720 5717 5713 5709 5703 5698 5694 5690 5686 5681 5675 5667 5660 5660 5657 5655 5653 5650 5648 5645 5641 5635 5627 5622 5621 5617 5614 5613 5608 5604 5603 5600 5597 5593 5591 5590 5593
5750 5749 5750 5750 5750 5751 5752 5752 5751 5748 5746 5743 5740 5737 5733 5729 5725 5720 5715 5712 5709 5707 5697 5693 5688 5683 5676 5669 5658 5659 5657 5653 5652 5649 5648 5645 5641 5638 5634 5628 5622 5615 5613 5611 5608 5606 5600 5599 5599 5597 5593 5589 5590 5587
5747 5746 5747 5747 5748 5749 5749 5749 5748 5747 5745 5742 5739 5736 5732 5728 5724 5721 5717 5702 5707 5701 5697 5689 5684 5679 5673 5668 5660 5659 5651 5650 5648 5648 5646 5643 5637 5634 5630 5627 5622 5615 5610 5608 5605 5602 5599 5595 5596 5597 5595 5592 5591 5590
5743 5743 5744 5745 5745 5746 5747 5746 5745 5744 5743 5741 5738 5735 5732 5727 5723 5719 5717 5711 5704 5697 5693 5686 5680 5675 5668 5664 5658 5654 5651 5648 5646 5643 5640 5637 5632 5628 5624 5621 5618 5613 5607 5605 5601 5599 5596 5592 5589 5592 5594 5590 5589 5591
5739 5741 5741 5741 5742 5744 5744 5744 5743 5742 5740 5739 5736 5734 5730 5726 5723 5718 5714 5709 5702 5695 5692 5683 5676 5670 5665 5660 5655 5651 5648 5644 5641 5638 5634 5631 5627 5623 5620 5616 5613 5609 5606 5601 5598 5596 5594 5590 5588 5583 5587 5590 5588 5587
5737 5738 5738 5739 5740 5741 5742 5741 5740 5739 5738 5736 5734 5732 5728 5725 5717 5709 5709 5706 5699 5692 5686 5678 5671 5667 5662 5657 5653 5648 5645 5641 5637 5632 5628 5625 5621 5619 5615 5611 5607 5604 5601 5598 5594 5591 5590 5589 5586 5584 5580 5580 5582 5585
5735 5736 5736 5737 5738 5739 5739 5738 5738 5737 5735 5733 5732 5729 5726 5724 5719 5716 5711 5705 5697 5689 5682 5675 5670 5665 5659 5655 5650 5645 5641 5636 5631 5628 5624 5620 5618 5614 5610 5606 5603 5599 5595 5592 5590 5588 5585 5583 5583 5581 5580 5578 5576 5578
5732 5733 5734 5735 5736 5736 5737 5736 5735 5734 5732 5730 5728 5727 5724 5719 5714 5709 5703 5699 5694 5685 5680 5673 5668 5663 5657 5651 5646 5641 5636 5632 5628 5623 5619 5615 5611 5607 5603 5600 5596 5593 5590 5587 5583 5581 5580 5578 5576 5576 5576 5575 5574 5573
5730 5731 5732 5733 5734 5734 5734 5734 5732 5731 5730 5729 5726 5725 5720 5712 5702 5705 5704 5698 5689 5683 5678 5672 5666 5661 5654 5648 5644 5639 5635 5629 5625 5621 5615 5609 5604 5598 5594 5590 5588 5584 5581 5581 5580 5574 5571 5569 5569 5569 5568 5569 5570 5571
5727 5728 5730 5731 5731 5731 5731 5730 5730 5729 5727 5726 5724 5722 5718 5714 5711 5707 5701 5696 5688 5682 5676 5670 5663 5657 5652 5646 5641 5636 5631 5626 5620 5615 5609 5604 5598 5593 5587 5582 5577 5575 5571 5567 5566 5567 5564 5560 5562 5560 5561 5560 5561 5564
5726 5726 5728 5728 5729 5728 5728 5728 5728 5721 5726 5725 5712 5720 5709 5712 5710 5704 5698 5693 5688 5680 5674 5667 5661 5654 5648 5644 5638 5633 5629 5623 5616 5610 5604 5597 5591 5584 5578 5573 5569 5566 5562 5558 5557 5562 5559 5553 5555 5553 5553 5554 5554 5556
5724 5725 5725 5726 5726 5725 5726 5725 5724 5723 5722 5721 5719 5718 5714 5710 5705 5700 5694 5690 5684 5678 5672 5666 5658 5652 5646 5641 5636 5631 5625 5620 5613 5606 5599 5592 5583 5575 5568 5562 5558 5556 5555 5553 5552 5553 5551 5550 5548 5547 5546 5547 5548 5550
5722 5722 5723 5723 5723 5723 5723 5722 5721 5720 5717 5714 5714 5713 5710 5706 5702 5697 5693 5687 5681 5675 5668 5662 5657 5650 5645 5639 5633 5628 5622 5617 5610 5602 5594 5586 5576 5566 5558 5554 5550 5548 5545 5543 5543 5544 5541 5542 5543 5542 5542 5541 5543 5544
5722 5722 5722 5722 5721 5721 5720 5720 5718 5718 5716 5715 5714 5711 5706 5703 5700 5695 5691 5685 5679 5671 5665 5661 5654 5647 5643 5638 5632 5626 5620 5614 5607 5600 5592 5582 5571 5561 5554 5549 5544 5541 5538 5535 5534 5535 5539 5538 5539 5537 5537 5538 5538 5537
5721 5721 5721 5720 5720 5720 5719 5718 5716 5712 5711 5712 5710 5701 5699 5702 5697 5692 5688 5682 5677 5669 5663 5659 5653 5647 5642 5637 5632 5626 5619 5614 5607 5600 5591 5582 5572 5562 5554 5548 5542 5538 5534 5534 5536 5534 5535 5535 5535 5535 5534 5533 5534 5536
5721 5720 5720 5720 5720 5719 5717 5714 5714 5714 5712 5709 5704 5701 5700 5696 5693 5690 5685 5678 5674 5668 5662 5657 5651 5646 5641 5636 5631 5625 5619 5613 5607 5601 5594 5586 5576 5566 5557 5551 5546 5541 5536 5535 5535 5535 5535 5534 5534 5533 5532 5534 5534 5536
5720 5720 5719 5719 5718 5717 5715 5713 5710 5709 5707 5700 5705 5703 5692 5689 5690 5687 5682 5678 5673 5667 5660 5655 5651 5645 5639 5634 5630 5625 5620 5615 5609 5603 5596 5589 5581 5573 5566 5559 5553 5548 5545 5542 5540 5538 5537 5536 5535 5535 5535 5535 5536 5537
5718 5717 5717 5717 5717 5715 5712 5709 5704 5698 5700 5702 5701 5700 5697 5691 5688 5684 5679 5675 5671 5664 5658 5654 5648 5644 5639 5633 5629 5624 5619 5614 5609 5604 5600 5594 5588 5581 5575 5570 5564 5559 5554 5550 5548 5545 5543 5542 5541 5540 5540 5540 5540 5540
5715 5715 5715 5716 5716 5713 5710 5706 5703 5694 5693 5697 5696 5697 5694 5687 5682 5678 5675 5672 5669 5663 5657 5651 5646 5642 5637 5633 5628 5624 5619 5615 5611 5607 5603 5598 5593 5588 5583 5579 5574 5569 5564 5560 5557 5554 5552 5550 5549 5547 5546 5545 5545 5545
5712 5712 5714 5714 5711 5711 5710 5706 5706 5706 5701 5700 5697 5692 5688 5683 5679 5675 5673 5669 5665 5661 5655 5650 5646 5641 5636 5632 5628 5624 5620 5616 5613 5609 5605 5601 5597 5593 5589 5585 5582 5577 5573 5569 5566 5563 5560 5558 5556 5554 5552 5550 5549 5548
5710 5710 5710 5710 5709 5704 5701 5701 5697 5701 5699 5696 5692 5689 5685 5680 5676 5673 5670 5666 5662 5657 5653 5649 5645 5641 5636 5632 5629 5625 5621 5618 5614 5611 5608 5604 5600 5596 5593 5590 5587 5583 5580 5577 5573 5570 5567 5565 5562 5560 5558 5556 5554 5553
5708 5706 5706 5705 5703 5699 5697 5693 5698 5697 5695 5691 5688 5686 5682 5678 5675 5671 5669 5665 5660 5655 5652 5649 5645 5641 5637 5633 5630 5626 5623 5620 5616 5613 5610 5607 5604 5600 5597 5594 5591 5588 5585 5582 5579 5577 5575 5573 5570 5568 5565 5563 5561 5559